188P/LINEAR-Mueller (2017)

Japanese version
Home page
Updated on August 6, 2017

---------------------------------------------------------------------

* Profile

* Pictures

* Orbital Elements

Epoch 2017 Feb. 16.0 TT = JDT 2457800.5
T 2017 Feb. 17.03747 TT                                 MPCW
q   2.5651363            (2000.0)            P               Q
n   0.10738318     Peri.   26.77074     +0.90054864     -0.43474318
a   4.3837441      Node   358.98126     +0.35900534     +0.74782797
e   0.4148526      Incl.   10.51134     +0.24520872     +0.50174864
P   9.18
From 883 observations 1998 Sept. 17-2016 Apr. 19, mean residual 0".7.
     Nongravitational parameters A1 = +1.80, A2 = -0.3021.

* Finding Charts

* Magnitudes Graph

        m1 =  6.5 + 5 log d + 20.0 log r  [ ,0]  (             - 2017 Feb. 17)
        m1 = 12.0 + 5 log d +  6.3 log r  [0, ]  (2017 Feb. 17 -             )

---------------------------------------------------------------------

The orbital elements are published on M.P.E.C. 2016-K18.
The charts are made with StellaNavigator Ver.8 (AstroArts).
The magnitudes graphs are made with Comet for Windows.

---------------------------------------------------------------------

Copyright(C) Seiichi Yoshida (comet@aerith.net). All rights reserved.